User: anonymous   Login
Location: Unspecified
(0.0000°N, 0.0000°E)
Time: 15:34:23
(UTC+00:00)
Language:

STSS DEMO 1 (USA 208) - Orbit

View from above orbital plane
View from above orbital plane
View from above satellite
View from above satellite

Ground track
Ground track

The orbit data is extracted from the following two-line orbital elements,

1 35937U 09052A   18258.91638173 0.00000000  00000-0  00000-0 0    08
2 35937  57.9872 231.3786 0017998  48.4571 311.5429 12.79330837    08
Epoch (UTC): 15 September 2018 21:59:35
Eccentricity: 0.0017998
inclination: 57.9872°
perigee height: 1330 km
apogee height: 1358 km
right ascension of ascending node: 231.3786°
argument of perigee: 48.4571°
revolutions per day: 12.79330837
mean anomaly at epoch: 311.5429°
orbit number at epoch: 0

The dashed part of the orbit path shows where the satellite is in the earth's shadow,  

DLR